Location: Auckland
(36.8670°S, 174.7670°E)
Time: 18:52:30
(UTC+12:00)

A-11 Canister half - Pass Details

Date: 29 July 2019
Orbit: 1526 x 1682 km, 47.3° (Epoch: 24 August)

Event Time Altitude Azimuth Distance (km) Brightness Sun altitude
Rises 12:48:48 0° 238° (WSW) 4,770 11.4 34.1°
Reaches altitude 10° 12:51:51 10° 237° (WSW) 3,803 10.9 34.0°
Maximum altitude 13:01:36 88° 323° (NW) 1,633 9.8 33.7°
Drops below altitude 10° 13:11:38 10° 53° (NE) 3,905 11.5 33.3°
Sets 13:14:48 0° 53° (NE) 4,902 11.9 33.2°
